This demonstration page uses our WeatherBlox Daily Observations layout. Learn more.

Left ArrowRight Arrow

44.8408, -93.29828

Hourly Observations for March 29, 2016

Temp ( °F °C ) Dew Point ( °F °C ) Humidity (%) Winds ( mph kmh ) Pressure ( in mb ) Visibility ( mi km ) Precip ( " mm )
12:53 am 00:53 Mostly Clear 45 7.2 33 0.6 63 63 ESE 6 9 30.15 1021 10 16 0.00 0.00
1:53 am 01:53 Mostly Clear 44 6.7 32 0 63 63 ESE 6 9 30.16 1021 10 16 0.00 0.00
2:53 am 02:53 Partly Cloudy 42 5.6 32 0 68 68 ESE 6 9 30.15 1021 10 16 0.00 0.00
3:53 am 03:53 Partly Cloudy 42 5.6 31 -0.6 65 65 ESE 5 7 30.16 1021 10 16 0.00 0.00
4:53 am 04:53 Partly Cloudy 41 5 31 -0.6 67 67 ESE 5 7 30.15 1021 10 16 0.00 0.00
5:53 am 05:53 Cloudy 42 5.6 30 -1.1 62 62 SE 9 15 30.16 1021 10 16 0.00 0.00
6:53 am 06:53 Mostly Cloudy 42 5.6 30 -1.1 62 62 SE 10 17 30.17 1022 10 16 0.00 0.00
7:53 am 07:53 Mostly Cloudy 44 6.7 30 -1.1 58 58 SSE 10 17 30.17 1022 10 16 0.00 0.00
8:53 am 08:53 Partly Cloudy 48 8.9 30 -1.1 50 50 SSE 10 17 30.16 1021 10 16 0.00 0.00
9:53 am 09:53 Mostly Cloudy 51 10.6 30 -1.1 44 44 S 12 19 30.16 1021 10 16 0.00 0.00
10:53 am 10:53 Mostly Cloudy 55 12.8 31 -0.6 40 40 S 13 20 30.16 1021 10 16 0.00 0.00
11:53 am 11:53 Mostly Cloudy 59 15 31 -0.6 35 35 S 14 22 30.14 1021 10 16 0.00 0.00
12:53 pm 12:53 Mostly Cloudy 60 15.6 32 0 35 35 S 15 24 30.11 1020 10 16 0.00 0.00
1:53 pm 13:53 Mostly Cloudy 62 16.7 32 0 32 32 S 15 24 30.09 1019 10 16 0.00 0.00
2:53 pm 14:53 Mostly Cloudy 62 16.7 33 0.6 34 34 S 17 28 30.05 1018 10 16 0.00 0.00
3:53 pm 15:53 Cloudy 62 16.7 33 0.6 34 34 SSE 18 30 30.03 1017 10 16 0.00 0.00
4:53 pm 16:53 Mostly Cloudy 62 16.7 32 0 32 32 SSE 21 33 30.01 1016 10 16 0.00 0.00
5:53 pm 17:53 Cloudy 61 16.1 31 -0.6 32 32 S 21 33 29.99 1016 10 16 0.00 0.00
6:53 pm 18:53 Cloudy 57 13.9 35 1.7 44 44 SSE 15 24 29.98 1015 10 16 0.00 0.00
7:53 pm 19:53 Cloudy 56 13.3 35 1.7 46 46 SE 12 19 29.98 1015 10 16 0.00 0.00
8:53 pm 20:53 Cloudy 55 12.8 34 1.1 45 45 SSE 16 26 29.96 1014 10 16 0.00 0.00
9:53 pm 21:53 Cloudy 55 12.8 34 1.1 45 45 SE 16 26 29.94 1014 10 16 0.00 0.00
10:53 pm 22:53 Cloudy with Light Rain 50 10 39 3.9 66 66 S 21 33 29.97 1015 10 16 0.00 0.03
11:53 pm 23:53 Cloudy with Light Rain 47 8.3 41 5 80 80 SE 6 9 29.97 1015 9 14 0.06 1.52

Powered by AerisWeather